When you browse on this site, cookies collect data to enhance your experience and personalize the content and advertising you see.
Visit our Privacy Policy to learn more. By continuing to use the site, you agree to this use of cookies and data.
  • In Latvia
  • List of Countries
  • For 7 days
  • Water Temperature
  • Weather Map
  • Weather Widgets
  • user-avatar
    Login

    Hourly Weather Brest

    Today, 4 June, Thursday

    Time Temperature Precipitation Wind Pressure Humidity
    00:00 +9°C° 0.1 mm 1 mps 739 mmHg 92%
    01:00 +9°C° 0.1 mm 1 mps 740 mmHg 93%
    02:00 +9°C° 0 mm 1 mps 739 mmHg 94%
    03:00 +9°C° 0 mm 1 mps 739 mmHg 95%
    04:00 +8°C° 0 mm 1 mps 739 mmHg 95%
    05:00 +8°C° 0 mm 1 mps 739 mmHg 95%
    06:00 +9°C° 0.1 mm 1 mps 739 mmHg 92%
    07:00 +11°C° 0.1 mm 1 mps 739 mmHg 89%
    08:00 +12°C° 0.1 mm 1 mps 739 mmHg 86%
    09:00 +13°C° 0.5 mm 2 mps 739 mmHg 81%
    10:00 +14°C° 0.5 mm 2 mps 738 mmHg 76%
    11:00 +15°C° 0.5 mm 2 mps 738 mmHg 70%
    12:00 +16°C° 0.4 mm 2 mps 738 mmHg 68%
    13:00 +17°C° 0.4 mm 3 mps 738 mmHg 66%
    14:00 +17°C° 0.4 mm 3 mps 738 mmHg 64%
    15:00 +17°C° 0.2 mm 2 mps 737 mmHg 63%
    16:00 +18°C° 0.2 mm 2 mps 737 mmHg 63%
    17:00 +18°C° 0.2 mm 2 mps 737 mmHg 62%
    18:00 +18°C° 0 mm 1 mps 737 mmHg 68%
    19:00 +15°C° 0 mm 1 mps 737 mmHg 73%
    20:00 +13°C° 0 mm 0 mps 736 mmHg 78%
    21:00 +13°C° 0 mm 1 mps 737 mmHg 80%
    22:00 +12°C° 0 mm 1 mps 737 mmHg 83%
    23:00 +10°C° 0 mm 2 mps 737 mmHg 86%

    Tomorrow, 5 June, Friday

    Time Temperature Precipitation Wind Pressure Humidity
    00:00 +10°C° 0 mm 2 mps 737 mmHg 87%
    01:00 +10°C° 0 mm 2 mps 737 mmHg 89%
    02:00 +10°C° 0 mm 2 mps 737 mmHg 90%
    03:00 +9°C° 0 mm 2 mps 736 mmHg 91%
    04:00 +9°C° 0 mm 2 mps 736 mmHg 92%
    05:00 +9°C° 0 mm 3 mps 736 mmHg 93%
    06:00 +11°C° 0 mm 3 mps 736 mmHg 90%
    07:00 +12°C° 0 mm 4 mps 736 mmHg 88%
    08:00 +14°C° 0 mm 4 mps 736 mmHg 85%
    09:00 +17°C° 0 mm 4 mps 736 mmHg 82%
    10:00 +19°C° 0 mm 5 mps 736 mmHg 78%
    11:00 +21°C° 0 mm 5 mps 735 mmHg 74%
    12:00 +21°C° 0.5 mm 5 mps 735 mmHg 74%
    13:00 +21°C° 0.5 mm 6 mps 735 mmHg 75%
    14:00 +21°C° 0.5 mm 6 mps 735 mmHg 75%
    15:00 +21°C° 0.5 mm 7 mps 735 mmHg 76%
    16:00 +21°C° 0.5 mm 7 mps 736 mmHg 77%
    17:00 +22°C° 0.5 mm 7 mps 736 mmHg 77%
    18:00 +20°C° 0.5 mm 6 mps 736 mmHg 81%
    19:00 +19°C° 0.5 mm 5 mps 737 mmHg 86%
    20:00 +18°C° 0.5 mm 4 mps 737 mmHg 90%
    21:00 +17°C° 0.4 mm 3 mps 737 mmHg 91%
    22:00 +17°C° 0.4 mm 2 mps 738 mmHg 93%
    23:00 +16°C° 0.4 mm 1 mps 738 mmHg 94%

    Day after tomorrow, 6 June, Saturday

    Time Temperature Precipitation Wind Pressure Humidity
    00:00 +16°C° 0.6 mm 1 mps 739 mmHg 95%
    01:00 +16°C° 0.6 mm 1 mps 739 mmHg 96%
    02:00 +15°C° 0.6 mm 1 mps 739 mmHg 96%
    03:00 +15°C° 0.2 mm 2 mps 739 mmHg 97%
    04:00 +15°C° 0.2 mm 2 mps 739 mmHg 97%
    05:00 +15°C° 0.2 mm 2 mps 739 mmHg 97%
    06:00 +16°C° 0 mm 3 mps 740 mmHg 93%
    07:00 +17°C° 0 mm 4 mps 741 mmHg 89%
    08:00 +17°C° 0 mm 5 mps 741 mmHg 85%
    09:00 +19°C° 0 mm 5 mps 742 mmHg 78%
    10:00 +20°C° 0 mm 5 mps 742 mmHg 71%
    11:00 +21°C° 0 mm 6 mps 743 mmHg 64%
    12:00 +22°C° 0 mm 6 mps 743 mmHg 62%
    13:00 +22°C° 0 mm 5 mps 744 mmHg 60%
    14:00 +23°C° 0 mm 5 mps 744 mmHg 58%
    15:00 +23°C° 0 mm 5 mps 744 mmHg 59%
    16:00 +23°C° 0 mm 4 mps 744 mmHg 60%
    17:00 +24°C° 0 mm 3 mps 744 mmHg 60%
    18:00 +21°C° 0 mm 3 mps 744 mmHg 66%
    19:00 +20°C° 0 mm 3 mps 744 mmHg 72%
    20:00 +19°C° 0 mm 2 mps 745 mmHg 77%
    21:00 +18°C° 0 mm 2 mps 745 mmHg 79%
    22:00 +17°C° 0 mm 2 mps 745 mmHg 81%
    23:00 +16°C° 0 mm 2 mps 745 mmHg 82%

    7 June, Sunday

    Time Temperature Precipitation Wind Pressure Humidity
    00:00 +16°C° 0 mm 2 mps 745 mmHg 86%
    01:00 +15°C° 0 mm 2 mps 745 mmHg 90%
    02:00 +15°C° 0 mm 2 mps 745 mmHg 94%
    03:00 +14°C° 0 mm 3 mps 745 mmHg 93%
    04:00 +14°C° 0 mm 3 mps 745 mmHg 92%
    05:00 +14°C° 0 mm 3 mps 744 mmHg 91%
    06:00 +16°C° 0.5 mm 3 mps 744 mmHg 91%
    07:00 +17°C° 0.5 mm 4 mps 744 mmHg 91%
    08:00 +19°C° 0.5 mm 4 mps 744 mmHg 91%
    09:00 +20°C° 0.1 mm 5 mps 744 mmHg 85%
    10:00 +22°C° 0.1 mm 5 mps 744 mmHg 79%
    11:00 +25°C° 0.1 mm 5 mps 744 mmHg 74%
    12:00 +25°C° 0.2 mm 5 mps 744 mmHg 72%
    13:00 +26°C° 0.2 mm 5 mps 744 mmHg 70%
    14:00 +27°C° 0.2 mm 5 mps 743 mmHg 68%
    15:00 +26°C° 1.9 mm 4 mps 743 mmHg 72%
    16:00 +25°C° 1.9 mm 3 mps 743 mmHg 77%
    17:00 +24°C° 1.9 mm 2 mps 743 mmHg 81%
    18:00 +23°C° 1.2 mm 2 mps 743 mmHg 82%
    19:00 +21°C° 1.2 mm 2 mps 744 mmHg 83%
    20:00 +21°C° 1.2 mm 2 mps 744 mmHg 84%
    21:00 +20°C° 0.2 mm 2 mps 744 mmHg 87%
    22:00 +19°C° 0.2 mm 2 mps 745 mmHg 90%
    23:00 +18°C° 0.2 mm 2 mps 745 mmHg 93%

    8 June, Monday

    Time Temperature Precipitation Wind Pressure Humidity
    00:00 +18°C° 0.4 mm 2 mps 745 mmHg 94%
    01:00 +17°C° 0.4 mm 2 mps 745 mmHg 94%
    02:00 +17°C° 0.4 mm 2 mps 745 mmHg 95%
    03:00 +16°C° 0.1 mm 2 mps 745 mmHg 96%
    04:00 +16°C° 0.1 mm 2 mps 745 mmHg 96%
    05:00 +16°C° 0.1 mm 2 mps 745 mmHg 97%
    06:00 +17°C° 0.1 mm 2 mps 745 mmHg 92%
    07:00 +19°C° 0.1 mm 2 mps 745 mmHg 87%
    08:00 +21°C° 0.1 mm 1 mps 745 mmHg 83%
    09:00 +21°C° 0.6 mm 2 mps 745 mmHg 76%
    10:00 +24°C° 0.6 mm 2 mps 745 mmHg 68%
    11:00 +25°C° 0.6 mm 2 mps 745 mmHg 61%
    12:00 +25°C° 0.3 mm 3 mps 745 mmHg 63%
    13:00 +25°C° 0.3 mm 3 mps 745 mmHg 64%
    14:00 +25°C° 0.3 mm 4 mps 744 mmHg 66%
    15:00 +25°C° 0.3 mm 4 mps 744 mmHg 68%
    16:00 +25°C° 0.3 mm 4 mps 744 mmHg 69%
    17:00 +25°C° 0.3 mm 3 mps 744 mmHg 71%
    18:00 +24°C° 0.4 mm 3 mps 744 mmHg 76%
    19:00 +22°C° 0.4 mm 3 mps 744 mmHg 82%
    20:00 +20°C° 0.4 mm 2 mps 743 mmHg 87%
    21:00 +20°C° 0 mm 2 mps 744 mmHg 89%
    22:00 +19°C° 0 mm 2 mps 744 mmHg 91%
    23:00 +18°C° 0 mm 2 mps 744 mmHg 92%

    9 June, Tuesday

    Time Temperature Precipitation Wind Pressure Humidity
    00:00 +17°C° 0 mm 2 mps 744 mmHg 93%
    01:00 +17°C° 0 mm 2 mps 744 mmHg 94%
    02:00 +18°C° 0 mm 1 mps 744 mmHg 94%
    03:00 +18°C° 0 mm 1 mps 744 mmHg 95%
    04:00 +16°C° 0 mm 1 mps 744 mmHg 95%
    05:00 +16°C° 0 mm 1 mps 745 mmHg 96%
    06:00 +19°C° 0 mm 1 mps 745 mmHg 91%
    07:00 +20°C° 0 mm 1 mps 745 mmHg 87%
    08:00 +22°C° 0 mm 1 mps 746 mmHg 83%
    09:00 +24°C° 0.1 mm 1 mps 746 mmHg 77%
    10:00 +25°C° 0.1 mm 1 mps 746 mmHg 72%
    11:00 +25°C° 0.1 mm 0 mps 746 mmHg 66%
    12:00 +27°C° 0.4 mm 1 mps 746 mmHg 64%
    13:00 +27°C° 0.4 mm 1 mps 746 mmHg 62%
    14:00 +28°C° 0.4 mm 1 mps 746 mmHg 60%
    15:00 +27°C° 1.6 mm 1 mps 746 mmHg 64%
    16:00 +27°C° 1.6 mm 1 mps 746 mmHg 68%
    17:00 +26°C° 1.6 mm 1 mps 746 mmHg 71%
    18:00 +25°C° 0.6 mm 1 mps 746 mmHg 76%
    19:00 +24°C° 0.6 mm 2 mps 746 mmHg 81%
    20:00 +23°C° 0.6 mm 2 mps 746 mmHg 85%
    21:00 +21°C° 0 mm 2 mps 746 mmHg 87%
    22:00 +20°C° 0 mm 2 mps 746 mmHg 88%
    23:00 +20°C° 0 mm 2 mps 746 mmHg 90%
    Show more